Location: Ozark
(37.5425°N, 88.7628°W)
Time: 21:05:45
(UTC+00:00)

Alouette 2 Rocket - Pass Details

Date: 26 January 2020
Orbit: 502 x 2650 km, 79.8° (Epoch: 23 February)

Event Time Altitude Azimuth Distance (km) Brightness Sun altitude
Rises 12:16:14 0° 198° (SSW) 3,441 7.4 -9.6°
Reaches altitude 10° 12:19:03 10° 202° (SSW) 2,253 6.4 -9.1°
Maximum altitude 12:23:41 56° 281° (W) 708 3.5 -8.2°
Drops below altitude 10° 12:27:19 10° 0° (N) 1,761 5.7 -7.5°
Sets 12:29:17 0° 6° (N) 2,611 6.6 -7.2°
